OBJECT V, 62396

Orbit data source: Space-Track

You're viewing an Uncataloged Satellite

Recently launched and/or uncataloged satellites may have evolving metadata. Metadata may include but not limited to: Owner, Maufacturer, Bus, Motor, and Mission.

OBJECT V, 62396 is a satellite in LEO that was launched on Sat, 21 Dec 2024 UTC via an FALCON 9 launch vehicle from the Air Force Western Test Range (AFWTR). Unknown objects in Earth's orbit typically refer to objects detected orbiting the Earth but have not yet been identified or cataloged. These objects could be anything from previously untracked satellites, spent rocket stages, debris from satellite collisions, or even natural meteoroids temporarily captured by Earth's gravity.

Loading next visibility...
Identifier
62396, 2024-247V
Orbit
LEO
Country
Flag of TBDTBD
Related business
None
Manufacturer
Unknown
Mission
Operational Commercial Communications
Bus & Motor
Unknown
Mass
Unknown
Launch date (UTC)
2024-12-21 (10 months ago)
Launch vehicle
FALCON 9
Launch site
Air Force Western Test Range (AFWTR)
Object type
Unknown
Shape & HBR
Box, 0.0 m
Radar Cross Section
0.004 m², Small (<0.1 m²)

Expand to show TLE details & history
Last TLE update: 10 hours ago

TLE from 10 hours ago
0 OBJECT V
1 62396U 24247V   25300.85364571  .00030689  00000-0  91232-3 0  9990
2 62396  44.9970 108.5235 0008526 259.0944 100.8983 15.34241510 47588
Epoch: 2025-10-27T20:29Z
TLE epoch observation values (Epoch: 2025-10-27T20:29:14.989Z)
Latitude
0.00004°
Longitude
124.76156°
Altitude
464.28 km
Speed
7.635 km/s
True Right ascension
07h 14m 05s
True Declination
0° 00' 00"
Sunlit
Object was in daylight at epoch
Visualization orbit readout
Latitude
Unknown
Longitude
Unknown
Altitude
Unknown
Speed
Unknown
Apparent Right ascension
Unknown
Apparent Declination
Unknown
Sunlit
N/A
Visualization observer readout
Local Sidereal Time
01:33:50
Azimuth
Unknown
Elevation
Unknown
Doppler factor
Unknown
Orbital elements
Apogee altitude
470.623 km
Perigee altitude
458.954 km
Semi-major axis
6,842.926 km
Eccentricity
0.00085
Inclination
44.997°
RAAN
108.5235°
Arg. of periapsis
259.0944°
True anomaly
100.99422°
Mean anomaly
100.8983°
Eccentric anomaly
100.94626°
Mean motion
3.83425 °/min
Orbital period
93.89 mins
BSTAR
0.00091232
Loading maneuver chart data...
Computing Atmospheric mass density...
Loading historical data...
Loading historical data...
Loading historical data...
Loading historical data...
Loading historical data...
Loading historical data...
Loading historical data...

Documentation

Showing up to 5 results
|